datetime,flow
1951-10-01,35.0
1951-10-02,32.0
1951-10-03,30.0
1951-10-04,29.0
1951-10-05,27.0
1951-10-06,26.0
1951-10-07,25.0
1951-10-08,24.0
1951-10-09,23.0
1951-10-10,21.0
1951-10-11,20.0
1951-10-12,19.0
1951-10-13,19.0
1951-10-14,18.0
1951-10-15,17.0
1951-10-16,17.0
1951-10-17,17.0
1951-10-18,17.0
1951-10-19,16.0
1951-10-20,16.0
1951-10-21,16.0
1951-10-22,16.0
1951-10-23,13.0
1951-10-24,13.0
1951-10-25,16.0
1951-10-26,24.0
1951-10-27,18.0
1951-10-28,15.0
1951-10-29,15.0
1951-10-30,16.0
1951-10-31,22.0
1951-11-01,19.0
1951-11-02,12.0
1951-11-03,14.0
1951-11-04,16.0
1951-11-05,18.0
1951-11-06,13.0
1951-11-07,14.0
1951-11-08,16.0
1951-11-09,16.0
1951-11-10,14.0
1951-11-11,17.0
1951-11-12,17.0
1951-11-13,19.0
1951-11-14,17.0
1951-11-15,15.0
1951-11-16,10.0
1951-11-17,11.0
1951-11-18,14.0
1951-11-19,16.0
1951-11-20,18.0
1951-11-21,20.0
1951-11-22,19.0
1951-11-23,18.0
1951-11-24,17.0
1951-11-25,15.0
1951-11-26,11.0
1951-11-27,12.0
1951-11-28,14.0
1951-11-29,13.0
1951-11-30,14.0
1951-12-01,14.0
1951-12-02,15.0
1951-12-03,16.0
1951-12-04,16.0
1951-12-05,12.0
1951-12-06,13.0
1951-12-07,13.0
1951-12-08,13.0
1951-12-09,13.0
1951-12-10,13.0
1951-12-11,13.0
1951-12-12,13.0
1951-12-13,13.0
1951-12-14,13.0
1951-12-15,13.0
1951-12-16,13.0
1951-12-17,13.0
1951-12-18,13.0
1951-12-19,13.0
1951-12-20,13.0
1951-12-21,13.0
1951-12-22,13.0
1951-12-23,13.0
1951-12-24,13.0
1951-12-25,13.0
1951-12-26,13.0
1951-12-27,13.0
1951-12-28,13.0
1951-12-29,13.0
1951-12-30,13.0
1951-12-31,13.0
1952-01-01,12.0
1952-01-02,12.0
1952-01-03,12.0
1952-01-04,12.0
1952-01-05,12.0
1952-01-06,12.0
1952-01-07,12.0
1952-01-08,12.0
1952-01-09,12.0
1952-01-10,12.0
1952-01-11,12.0
1952-01-12,12.0
1952-01-13,12.0
1952-01-14,12.0
1952-01-15,12.0
1952-01-16,12.0
1952-01-17,12.0
1952-01-18,12.0
1952-01-19,12.0
1952-01-20,12.0
1952-01-21,12.0
1952-01-22,12.0
1952-01-23,12.0
1952-01-24,12.0
1952-01-25,12.0
1952-01-26,12.0
1952-01-27,12.0
1952-01-28,12.0
1952-01-29,12.0
1952-01-30,12.0
1952-01-31,12.0
1952-02-01,11.0
1952-02-02,11.0
1952-02-03,11.0
1952-02-04,11.0
1952-02-05,11.0
1952-02-06,11.0
1952-02-07,11.0
1952-02-08,11.0
1952-02-09,11.0
1952-02-10,11.0
1952-02-11,11.0
1952-02-12,11.0
1952-02-13,11.0
1952-02-14,11.0
1952-02-15,11.0
1952-02-16,11.0
1952-02-17,11.0
1952-02-18,11.0
1952-02-19,11.0
1952-02-20,11.0
1952-02-21,11.0
1952-02-22,11.0
1952-02-23,11.0
1952-02-24,11.0
1952-02-25,11.0
1952-02-26,11.0
1952-02-27,11.0
1952-02-28,11.0
1952-02-29,11.0
1952-03-01,18.0
1952-03-02,18.0
1952-03-03,18.0
1952-03-04,18.0
1952-03-05,18.0
1952-03-06,18.0
1952-03-07,18.0
1952-03-08,18.0
1952-03-09,18.0
1952-03-10,18.0
1952-03-11,18.0
1952-03-12,18.0
1952-03-13,18.0
1952-03-14,18.0
1952-03-15,18.0
1952-03-16,18.0
1952-03-17,18.0
1952-03-18,18.0
1952-03-19,18.0
1952-03-20,18.0
1952-03-21,18.0
1952-03-22,18.0
1952-03-23,18.0
1952-03-24,18.0
1952-03-25,18.0
1952-03-26,18.0
1952-03-27,18.0
1952-03-28,18.0
1952-03-29,18.0
1952-03-30,18.0
1952-03-31,18.0
1952-04-01,22.0
1952-04-02,25.0
1952-04-03,30.0
1952-04-04,40.0
1952-04-05,55.0
1952-04-06,80.0
1952-04-07,115.0
1952-04-08,120.0
1952-04-09,100.0
1952-04-10,112.0
1952-04-11,95.0
1952-04-12,85.0
1952-04-13,85.0
1952-04-14,110.0
1952-04-15,144.0
1952-04-16,175.0
1952-04-17,216.0
1952-04-18,228.0
1952-04-19,222.0
1952-04-20,192.0
1952-04-21,156.0
1952-04-22,137.0
1952-04-23,144.0
1952-04-24,185.0
1952-04-25,213.0
1952-04-26,276.0
1952-04-27,372.0
1952-04-28,360.0
1952-04-29,258.0
1952-04-30,219.0
1952-05-01,246.0
1952-05-02,372.0
1952-05-03,565.0
1952-05-04,758.0
1952-05-05,938.0
1952-05-06,966.0
1952-05-07,758.0
1952-05-08,758.0
1952-05-09,819.0
1952-05-10,722.0
1952-05-11,833.0
1952-05-12,924.0
1952-05-13,1010.0
1952-05-14,1160.0
1952-05-15,1160.0
1952-05-16,987.0
1952-05-17,728.0
1952-05-18,510.0
1952-05-19,456.0
1952-05-20,440.0
1952-05-21,400.0
1952-05-22,336.0
1952-05-23,288.0
1952-05-24,291.0
1952-05-25,344.0
1952-05-26,420.0
1952-05-27,555.0
1952-05-28,777.0
1952-05-29,882.0
1952-05-30,1020.0
1952-05-31,1060.0
1952-06-01,1060.0
1952-06-02,1160.0
1952-06-03,1690.0
1952-06-04,1440.0
1952-06-05,1430.0
1952-06-06,1510.0
1952-06-07,1640.0
1952-06-08,1620.0
1952-06-09,1740.0
1952-06-10,1810.0
1952-06-11,1720.0
1952-06-12,1590.0
1952-06-13,1470.0
1952-06-14,1490.0
1952-06-15,1530.0
1952-06-16,1420.0
1952-06-17,1170.0
1952-06-18,1080.0
1952-06-19,1100.0
1952-06-20,1120.0
1952-06-21,991.0
1952-06-22,828.0
1952-06-23,750.0
1952-06-24,680.0
1952-06-25,615.0
1952-06-26,555.0
1952-06-27,525.0
1952-06-28,452.0
1952-06-29,444.0
1952-06-30,436.0
1952-07-01,432.0
1952-07-02,408.0
1952-07-03,372.0
1952-07-04,360.0
1952-07-05,448.0
1952-07-06,775.0
1952-07-07,535.0
1952-07-08,408.0
1952-07-09,376.0
1952-07-10,340.0
1952-07-11,299.0
1952-07-12,261.0
1952-07-13,237.0
1952-07-14,210.0
1952-07-15,189.0
1952-07-16,171.0
1952-07-17,158.0
1952-07-18,148.0
1952-07-19,136.0
1952-07-20,132.0
1952-07-21,126.0
1952-07-22,120.0
1952-07-23,116.0
1952-07-24,118.0
1952-07-25,120.0
1952-07-26,116.0
1952-07-27,112.0
1952-07-28,110.0
1952-07-29,110.0
1952-07-30,112.0
1952-07-31,100.0
1952-08-01,90.0
1952-08-02,86.0
1952-08-03,77.0
1952-08-04,74.0
1952-08-05,71.0
1952-08-06,66.0
1952-08-07,70.0
1952-08-08,76.0
1952-08-09,68.0
1952-08-10,77.0
1952-08-11,70.0
1952-08-12,62.0
1952-08-13,65.0
1952-08-14,98.0
1952-08-15,82.0
1952-08-16,65.0
1952-08-17,60.0
1952-08-18,68.0
1952-08-19,71.0
1952-08-20,108.0
1952-08-21,124.0
1952-08-22,110.0
1952-08-23,88.0
1952-08-24,82.0
1952-08-25,70.0
1952-08-26,65.0
1952-08-27,64.0
1952-08-28,72.0
1952-08-29,90.0
1952-08-30,72.0
1952-08-31,61.0
1952-09-01,55.0
1952-09-02,49.0
1952-09-03,46.0
1952-09-04,44.0
1952-09-05,43.0
1952-09-06,41.0
1952-09-07,41.0
1952-09-08,40.0
1952-09-09,38.0
1952-09-10,36.0
1952-09-11,35.0
1952-09-12,37.0
1952-09-13,37.0
1952-09-14,32.0
1952-09-15,31.0
1952-09-16,32.0
1952-09-17,39.0
1952-09-18,34.0
1952-09-19,31.0
1952-09-20,33.0
1952-09-21,104.0
1952-09-22,168.0
1952-09-23,132.0
1952-09-24,86.0
1952-09-25,72.0
1952-09-26,64.0
1952-09-27,58.0
1952-09-28,51.0
1952-09-29,48.0
1952-09-30,46.0
1952-10-01,42.0
1952-10-02,40.0
1952-10-03,38.0
1952-10-04,35.0
1952-10-05,34.0
1952-10-06,33.0
1952-10-07,30.0
1952-10-08,30.0
1952-10-09,28.0
1952-10-10,28.0
1952-10-11,27.0
1952-10-12,27.0
1952-10-13,26.0
1952-10-14,26.0
1952-10-15,23.0
1952-10-16,23.0
1952-10-17,24.0
1952-10-18,23.0
1952-10-19,23.0
1952-10-20,23.0
1952-10-21,23.0
1952-10-22,23.0
1952-10-23,23.0
1952-10-24,23.0
1952-10-25,23.0
1952-10-26,23.0
1952-10-27,23.0
1952-10-28,22.0
1952-10-29,22.0
1952-10-30,22.0
1952-10-31,22.0
1952-11-01,23.0
1952-11-02,23.0
1952-11-03,24.0
1952-11-04,22.0
1952-11-05,21.0
1952-11-06,22.0
1952-11-07,22.0
1952-11-08,24.0
1952-11-09,23.0
1952-11-10,20.0
1952-11-11,18.0
1952-11-12,20.0
1952-11-13,23.0
1952-11-14,20.0
1952-11-15,22.0
1952-11-16,21.0
1952-11-17,20.0
1952-11-18,17.0
1952-11-19,13.0
1952-11-20,17.0
1952-11-21,22.0
1952-11-22,23.0
1952-11-23,23.0
1952-11-24,22.0
1952-11-25,20.0
1952-11-26,19.0
1952-11-27,18.0
1952-11-28,17.0
1952-11-29,18.0
1952-11-30,19.0
1952-12-01,21.0
1952-12-02,22.0
1952-12-03,21.0
1952-12-04,20.0
1952-12-05,19.0
1952-12-06,19.0
1952-12-07,20.0
1952-12-08,20.0
1952-12-09,20.0
1952-12-10,19.0
1952-12-11,19.0
1952-12-12,19.0
1952-12-13,19.0
1952-12-14,19.0
1952-12-15,19.0
1952-12-16,19.0
1952-12-17,19.0
1952-12-18,20.0
1952-12-19,20.0
1952-12-20,20.0
1952-12-21,19.0
1952-12-22,19.0
1952-12-23,19.0
1952-12-24,18.0
1952-12-25,17.0
1952-12-26,17.0
1952-12-27,16.0
1952-12-28,16.0
1952-12-29,16.0
1952-12-30,16.0
1952-12-31,16.0
1953-01-01,17.0
1953-01-02,15.0
1953-01-03,15.0
1953-01-04,15.0
1953-01-05,14.0
1953-01-06,15.0
1953-01-07,15.0
1953-01-08,16.0
1953-01-09,15.0
1953-01-10,16.0
1953-01-11,15.0
1953-01-12,16.0
1953-01-13,17.0
1953-01-14,17.0
1953-01-15,16.0
1953-01-16,16.0
1953-01-17,15.0
1953-01-18,16.0
1953-01-19,17.0
1953-01-20,17.0
1953-01-21,17.0
1953-01-22,16.0
1953-01-23,15.0
1953-01-24,15.0
1953-01-25,16.0
1953-01-26,16.0
1953-01-27,16.0
1953-01-28,15.0
1953-01-29,15.0
1953-01-30,16.0
1953-01-31,15.0
1953-02-01,15.0
1953-02-02,16.0
1953-02-03,16.0
1953-02-04,17.0
1953-02-05,17.0
1953-02-06,17.0
1953-02-07,16.0
1953-02-08,16.0
1953-02-09,16.0
1953-02-10,16.0
1953-02-11,16.0
1953-02-12,16.0
1953-02-13,15.0
1953-02-14,15.0
1953-02-15,16.0
1953-02-16,15.0
1953-02-17,15.0
1953-02-18,15.0
1953-02-19,15.0
1953-02-20,15.0
1953-02-21,15.0
1953-02-22,15.0
1953-02-23,14.0
1953-02-24,15.0
1953-02-25,15.0
1953-02-26,15.0
1953-02-27,15.0
1953-02-28,16.0
1953-03-01,17.0
1953-03-02,16.0
1953-03-03,15.0
1953-03-04,14.0
1953-03-05,14.0
1953-03-06,15.0
1953-03-07,15.0
1953-03-08,16.0
1953-03-09,16.0
1953-03-10,18.0
1953-03-11,18.0
1953-03-12,18.0
1953-03-13,19.0
1953-03-14,17.0
1953-03-15,16.0
1953-03-16,18.0
1953-03-17,19.0
1953-03-18,20.0
1953-03-19,22.0
1953-03-20,19.0
1953-03-21,16.0
1953-03-22,17.0
1953-03-23,21.0
1953-03-24,20.0
1953-03-25,25.0
1953-03-26,29.0
1953-03-27,34.0
1953-03-28,40.0
1953-03-29,46.0
1953-03-30,43.0
1953-03-31,37.0
1953-04-01,33.0
1953-04-02,38.0
1953-04-03,40.0
1953-04-04,46.0
1953-04-05,45.0
1953-04-06,50.0
1953-04-07,45.0
1953-04-08,38.0
1953-04-09,41.0
1953-04-10,36.0
1953-04-11,35.0
1953-04-12,30.0
1953-04-13,30.0
1953-04-14,31.0
1953-04-15,32.0
1953-04-16,44.0
1953-04-17,56.0
1953-04-18,49.0
1953-04-19,52.0
1953-04-20,75.0
1953-04-21,93.0
1953-04-22,130.0
1953-04-23,195.0
1953-04-24,228.0
1953-04-25,273.0
1953-04-26,296.0
1953-04-27,292.0
1953-04-28,273.0
1953-04-29,201.0
1953-04-30,155.0
1953-05-01,123.0
1953-05-02,97.0
1953-05-03,90.0
1953-05-04,80.0
1953-05-05,78.0
1953-05-06,90.0
1953-05-07,118.0
1953-05-08,162.0
1953-05-09,210.0
1953-05-10,186.0
1953-05-11,145.0
1953-05-12,121.0
1953-05-13,106.0
1953-05-14,97.0
1953-05-15,93.0
1953-05-16,92.0
1953-05-17,90.0
1953-05-18,95.0
1953-05-19,97.0
1953-05-20,103.0
1953-05-21,160.0
1953-05-22,328.0
1953-05-23,505.0
1953-05-24,590.0
1953-05-25,610.0
1953-05-26,645.0
1953-05-27,730.0
1953-05-28,1290.0
1953-05-29,907.0
1953-05-30,685.0
1953-05-31,670.0
1953-06-01,786.0
1953-06-02,775.0
1953-06-03,792.0
1953-06-04,740.0
1953-06-05,605.0
1953-06-06,545.0
1953-06-07,472.0
1953-06-08,468.0
1953-06-09,655.0
1953-06-10,730.0
1953-06-11,765.0
1953-06-12,991.0
1953-06-13,858.0
1953-06-14,755.0
1953-06-15,595.0
1953-06-16,476.0
1953-06-17,436.0
1953-06-18,420.0
1953-06-19,396.0
1953-06-20,282.0
1953-06-21,249.0
1953-06-22,240.0
1953-06-23,219.0
1953-06-24,195.0
1953-06-25,171.0
1953-06-26,152.0
1953-06-27,123.0
1953-06-28,116.0
1953-06-29,108.0
1953-06-30,106.0
1953-07-01,101.0
1953-07-02,95.0
1953-07-03,92.0
1953-07-04,83.0
1953-07-05,80.0
1953-07-06,74.0
1953-07-07,68.0
1953-07-08,64.0
1953-07-09,62.0
1953-07-10,61.0
1953-07-11,67.0
1953-07-12,74.0
1953-07-13,71.0
1953-07-14,74.0
1953-07-15,71.0
1953-07-16,114.0
1953-07-17,158.0
1953-07-18,192.0
1953-07-19,148.0
1953-07-20,110.0
1953-07-21,86.0
1953-07-22,93.0
1953-07-23,81.0
1953-07-24,68.0
1953-07-25,67.0
1953-07-26,65.0
1953-07-27,83.0
1953-07-28,85.0
1953-07-29,75.0
1953-07-30,77.0
1953-07-31,180.0
1953-08-01,165.0
1953-08-02,155.0
1953-08-03,121.0
1953-08-04,95.0
1953-08-05,78.0
1953-08-06,68.0
1953-08-07,61.0
1953-08-08,56.0
1953-08-09,54.0
1953-08-10,61.0
1953-08-11,55.0
1953-08-12,48.0
1953-08-13,45.0
1953-08-14,44.0
1953-08-15,42.0
1953-08-16,40.0
1953-08-17,38.0
1953-08-18,38.0
1953-08-19,40.0
1953-08-20,37.0
1953-08-21,34.0
1953-08-22,37.0
1953-08-23,35.0
1953-08-24,31.0
1953-08-25,30.0
1953-08-26,29.0
1953-08-27,33.0
1953-08-28,61.0
1953-08-29,49.0
1953-08-30,40.0
1953-08-31,35.0
1953-09-01,31.0
1953-09-02,30.0
1953-09-03,29.0
1953-09-04,27.0
1953-09-05,26.0
1953-09-06,25.0
1953-09-07,26.0
1953-09-08,26.0
1953-09-09,28.0
1953-09-10,29.0
1953-09-11,28.0
1953-09-12,27.0
1953-09-13,26.0
1953-09-14,25.0
1953-09-15,25.0
1953-09-16,25.0
1953-09-17,25.0
1953-09-18,24.0
1953-09-19,23.0
1953-09-20,23.0
1953-09-21,23.0
1953-09-22,23.0
1953-09-23,22.0
1953-09-24,22.0
1953-09-25,22.0
1953-09-26,21.0
1953-09-27,20.0
1953-09-28,20.0
1953-09-29,20.0
1953-09-30,20.0
1953-10-01,20.0
1953-10-02,20.0
1953-10-03,20.0
1953-10-04,20.0
1953-10-05,20.0
1953-10-06,20.0
1953-10-07,20.0
1953-10-08,20.0
1953-10-09,19.0
1953-10-10,19.0
1953-10-11,18.0
1953-10-12,25.0
1953-10-13,27.0
1953-10-14,24.0
1953-10-15,25.0
1953-10-16,24.0
1953-10-17,24.0
1953-10-18,23.0
1953-10-19,24.0
1953-10-20,30.0
1953-10-21,26.0
1953-10-22,28.0
1953-10-23,40.0
1953-10-24,32.0
1953-10-25,26.0
1953-10-26,24.0
1953-10-27,26.0
1953-10-28,28.0
1953-10-29,29.0
1953-10-30,29.0
1953-10-31,29.0
1953-11-01,30.0
1953-11-02,33.0
1953-11-03,32.0
1953-11-04,31.0
1953-11-05,31.0
1953-11-06,28.0
1953-11-07,26.0
1953-11-08,23.0
1953-11-09,25.0
1953-11-10,27.0
1953-11-11,28.0
1953-11-12,29.0
1953-11-13,29.0
1953-11-14,30.0
1953-11-15,33.0
1953-11-16,30.0
1953-11-17,30.0
1953-11-18,32.0
1953-11-19,28.0
1953-11-20,22.0
1953-11-21,23.0
1953-11-22,21.0
1953-11-23,23.0
1953-11-24,24.0
1953-11-25,25.0
1953-11-26,25.0
1953-11-27,26.0
1953-11-28,26.0
1953-11-29,26.0
1953-11-30,26.0
1953-12-01,26.0
1953-12-02,25.0
1953-12-03,23.0
1953-12-04,20.0
1953-12-05,24.0
1953-12-06,22.0
1953-12-07,23.0
1953-12-08,23.0
1953-12-09,20.0
1953-12-10,21.0
1953-12-11,22.0
1953-12-12,22.0
1953-12-13,23.0
1953-12-14,24.0
1953-12-15,25.0
1953-12-16,25.0
1953-12-17,25.0
1953-12-18,25.0
1953-12-19,25.0
1953-12-20,25.0
1953-12-21,22.0
1953-12-22,18.0
1953-12-23,15.0
1953-12-24,15.0
1953-12-25,17.0
1953-12-26,19.0
1953-12-27,20.0
1953-12-28,18.0
1953-12-29,19.0
1953-12-30,18.0
1953-12-31,17.0
1954-01-01,17.0
1954-01-02,17.0
1954-01-03,17.0
1954-01-04,17.0
1954-01-05,17.0
1954-01-06,18.0
1954-01-07,20.0
1954-01-08,19.0
1954-01-09,19.0
1954-01-10,18.0
1954-01-11,18.0
1954-01-12,19.0
1954-01-13,18.0
1954-01-14,17.0
1954-01-15,18.0
1954-01-16,18.0
1954-01-17,19.0
1954-01-18,19.0
1954-01-19,18.0
1954-01-20,17.0
1954-01-21,16.0
1954-01-22,16.0
1954-01-23,17.0
1954-01-24,18.0
1954-01-25,17.0
1954-01-26,16.0
1954-01-27,15.0
1954-01-28,15.0
1954-01-29,16.0
1954-01-30,16.0
1954-01-31,15.0
1954-02-01,14.0
1954-02-02,14.0
1954-02-03,14.0
1954-02-04,15.0
1954-02-05,15.0
1954-02-06,15.0
1954-02-07,15.0
1954-02-08,15.0
1954-02-09,15.0
1954-02-10,15.0
1954-02-11,15.0
1954-02-12,15.0
1954-02-13,16.0
1954-02-14,16.0
1954-02-15,15.0
1954-02-16,14.0
1954-02-17,15.0
1954-02-18,15.0
1954-02-19,15.0
1954-02-20,15.0
1954-02-21,16.0
1954-02-22,16.0
1954-02-23,17.0
1954-02-24,18.0
1954-02-25,18.0
1954-02-26,18.0
1954-02-27,17.0
1954-02-28,16.0
1954-03-01,17.0
1954-03-02,15.0
1954-03-03,13.0
1954-03-04,15.0
1954-03-05,16.0
1954-03-06,15.0
1954-03-07,17.0
1954-03-08,20.0
1954-03-09,22.0
1954-03-10,22.0
1954-03-11,21.0
1954-03-12,17.0
1954-03-13,15.0
1954-03-14,16.0
1954-03-15,17.0
1954-03-16,18.0
1954-03-17,18.0
1954-03-18,17.0
1954-03-19,15.0
1954-03-20,16.0
1954-03-21,17.0
1954-03-22,17.0
1954-03-23,17.0
1954-03-24,16.0
1954-03-25,15.0
1954-03-26,15.0
1954-03-27,16.0
1954-03-28,17.0
1954-03-29,18.0
1954-03-30,19.0
1954-03-31,18.0
1954-04-01,16.0
1954-04-02,20.0
1954-04-03,32.0
1954-04-04,47.0
1954-04-05,60.0
1954-04-06,70.0
1954-04-07,80.0
1954-04-08,90.0
1954-04-09,116.0
1954-04-10,126.0
1954-04-11,126.0
1954-04-12,142.0
1954-04-13,152.0
1954-04-14,174.0
1954-04-15,142.0
1954-04-16,152.0
1954-04-17,231.0
1954-04-18,299.0
1954-04-19,316.0
1954-04-20,296.0
1954-04-21,282.0
1954-04-22,276.0
1954-04-23,320.0
1954-04-24,332.0
1954-04-25,324.0
1954-04-26,243.0
1954-04-27,234.0
1954-04-28,243.0
1954-04-29,216.0
1954-04-30,177.0
1954-05-01,152.0
1954-05-02,138.0
1954-05-03,155.0
1954-05-04,183.0
1954-05-05,198.0
1954-05-06,249.0
1954-05-07,299.0
1954-05-08,348.0
1954-05-09,424.0
1954-05-10,440.0
1954-05-11,340.0
1954-05-12,388.0
1954-05-13,388.0
1954-05-14,388.0
1954-05-15,456.0
1954-05-16,420.0
1954-05-17,404.0
1954-05-18,510.0
1954-05-19,540.0
1954-05-20,595.0
1954-05-21,605.0
1954-05-22,635.0
1954-05-23,476.0
1954-05-24,392.0
1954-05-25,364.0
1954-05-26,368.0
1954-05-27,376.0
1954-05-28,364.0
1954-05-29,328.0
1954-05-30,302.0
1954-05-31,292.0
1954-06-01,285.0
1954-06-02,273.0
1954-06-03,270.0
1954-06-04,276.0
1954-06-05,267.0
1954-06-06,246.0
1954-06-07,201.0
1954-06-08,180.0
1954-06-09,174.0
1954-06-10,168.0
1954-06-11,150.0
1954-06-12,150.0
1954-06-13,160.0
1954-06-14,145.0
1954-06-15,133.0
1954-06-16,128.0
1954-06-17,145.0
1954-06-18,150.0
1954-06-19,145.0
1954-06-20,138.0
1954-06-21,126.0
1954-06-22,116.0
1954-06-23,110.0
1954-06-24,103.0
1954-06-25,93.0
1954-06-26,88.0
1954-06-27,121.0
1954-06-28,86.0
1954-06-29,75.0
1954-06-30,68.0
1954-07-01,68.0
1954-07-02,68.0
1954-07-03,62.0
1954-07-04,62.0
1954-07-05,70.0
1954-07-06,58.0
1954-07-07,60.0
1954-07-08,56.0
1954-07-09,53.0
1954-07-10,55.0
1954-07-11,52.0
1954-07-12,56.0
1954-07-13,54.0
1954-07-14,49.0
1954-07-15,53.0
1954-07-16,54.0
1954-07-17,71.0
1954-07-18,61.0
1954-07-19,64.0
1954-07-20,62.0
1954-07-21,53.0
1954-07-22,55.0
1954-07-23,80.0
1954-07-24,145.0
1954-07-25,130.0
1954-07-26,108.0
1954-07-27,80.0
1954-07-28,68.0
1954-07-29,58.0
1954-07-30,55.0
1954-07-31,53.0
1954-08-01,49.0
1954-08-02,46.0
1954-08-03,42.0
1954-08-04,44.0
1954-08-05,50.0
1954-08-06,50.0
1954-08-07,41.0
1954-08-08,38.0
1954-08-09,35.0
1954-08-10,35.0
1954-08-11,40.0
1954-08-12,40.0
1954-08-13,50.0
1954-08-14,42.0
1954-08-15,40.0
1954-08-16,48.0
1954-08-17,83.0
1954-08-18,50.0
1954-08-19,43.0
1954-08-20,42.0
1954-08-21,42.0
1954-08-22,37.0
1954-08-23,34.0
1954-08-24,33.0
1954-08-25,37.0
1954-08-26,33.0
1954-08-27,30.0
1954-08-28,28.0
1954-08-29,28.0
1954-08-30,27.0
1954-08-31,27.0
1954-09-01,28.0
1954-09-02,27.0
1954-09-03,32.0
1954-09-04,42.0
1954-09-05,58.0
1954-09-06,53.0
1954-09-07,46.0
1954-09-08,47.0
1954-09-09,39.0
1954-09-10,37.0
1954-09-11,38.0
1954-09-12,178.0
1954-09-13,145.0
1954-09-14,90.0
1954-09-15,72.0
1954-09-16,64.0
1954-09-17,54.0
1954-09-18,48.0
1954-09-19,45.0
1954-09-20,41.0
1954-09-21,38.0
1954-09-22,37.0
1954-09-23,49.0
1954-09-24,55.0
1954-09-25,78.0
1954-09-26,110.0
1954-09-27,93.0
1954-09-28,81.0
1954-09-29,71.0
1954-09-30,62.0
1954-10-01,55.0
1954-10-02,56.0
1954-10-03,74.0
1954-10-04,123.0
1954-10-05,121.0
1954-10-06,110.0
1954-10-07,114.0
1954-10-08,142.0
1954-10-09,155.0
1954-10-10,177.0
1954-10-11,140.0
1954-10-12,116.0
1954-10-13,99.0
1954-10-14,81.0
1954-10-15,74.0
1954-10-16,67.0
1954-10-17,60.0
1954-10-18,55.0
1954-10-19,53.0
1954-10-20,50.0
1954-10-21,48.0
1954-10-22,45.0
1954-10-23,44.0
1954-10-24,41.0
1954-10-25,40.0
1954-10-26,35.0
1954-10-27,33.0
1954-10-28,31.0
1954-10-29,33.0
1954-10-30,32.0
1954-10-31,28.0
1954-11-01,30.0
1954-11-02,31.0
1954-11-03,30.0
1954-11-04,27.0
1954-11-05,26.0
1954-11-06,28.0
1954-11-07,28.0
1954-11-08,25.0
1954-11-09,24.0
1954-11-10,25.0
1954-11-11,24.0
1954-11-12,26.0
1954-11-13,27.0
1954-11-14,25.0
1954-11-15,24.0
1954-11-16,25.0
1954-11-17,25.0
1954-11-18,22.0
1954-11-19,23.0
1954-11-20,24.0
1954-11-21,25.0
1954-11-22,23.0
1954-11-23,23.0
1954-11-24,23.0
1954-11-25,24.0
1954-11-26,23.0
1954-11-27,23.0
1954-11-28,21.0
1954-11-29,18.0
1954-11-30,23.0
1954-12-01,22.0
1954-12-02,23.0
1954-12-03,23.0
1954-12-04,23.0
1954-12-05,22.0
1954-12-06,21.0
1954-12-07,22.0
1954-12-08,21.0
1954-12-09,19.0
1954-12-10,20.0
1954-12-11,22.0
1954-12-12,21.0
1954-12-13,19.0
1954-12-14,20.0
1954-12-15,20.0
1954-12-16,20.0
1954-12-17,18.0
1954-12-18,19.0
1954-12-19,20.0
1954-12-20,19.0
1954-12-21,18.0
1954-12-22,19.0
1954-12-23,19.0
1954-12-24,19.0
1954-12-25,19.0
1954-12-26,19.0
1954-12-27,19.0
1954-12-28,17.0
1954-12-29,15.0
1954-12-30,16.0
1954-12-31,17.0
1955-01-01,19.0
1955-01-02,20.0
1955-01-03,20.0
1955-01-04,20.0
1955-01-05,19.0
1955-01-06,18.0
1955-01-07,18.0
1955-01-08,18.0
1955-01-09,19.0
1955-01-10,19.0
1955-01-11,19.0
1955-01-12,16.0
1955-01-13,17.0
1955-01-14,20.0
1955-01-15,18.0
1955-01-16,19.0
1955-01-17,20.0
1955-01-18,16.0
1955-01-19,17.0
1955-01-20,16.0
1955-01-21,15.0
1955-01-22,14.0
1955-01-23,13.0
1955-01-24,13.0
1955-01-25,14.0
1955-01-26,14.0
1955-01-27,14.0
1955-01-28,14.0
1955-01-29,14.0
1955-01-30,15.0
1955-01-31,16.0
1955-02-01,15.0
1955-02-02,14.0
1955-02-03,14.0
1955-02-04,13.0
1955-02-05,13.0
1955-02-06,14.0
1955-02-07,14.0
1955-02-08,15.0
1955-02-09,15.0
1955-02-10,15.0
1955-02-11,14.0
1955-02-12,15.0
1955-02-13,16.0
1955-02-14,12.0
1955-02-15,17.0
1955-02-16,17.0
1955-02-17,17.0
1955-02-18,16.0
1955-02-19,15.0
1955-02-20,12.0
1955-02-21,12.0
1955-02-22,13.0
1955-02-23,14.0
1955-02-24,14.0
1955-02-25,14.0
1955-02-26,15.0
1955-02-27,16.0
1955-02-28,16.0
1955-03-01,13.0
1955-03-02,13.0
1955-03-03,14.0
1955-03-04,15.0
1955-03-05,11.0
1955-03-06,16.0
1955-03-07,15.0
1955-03-08,15.0
1955-03-09,15.0
1955-03-10,16.0
1955-03-11,16.0
1955-03-12,16.0
1955-03-13,16.0
1955-03-14,18.0
1955-03-15,20.0
1955-03-16,22.0
1955-03-17,18.0
1955-03-18,18.0
1955-03-19,18.0
1955-03-20,20.0
1955-03-21,17.0
1955-03-22,15.0
1955-03-23,18.0
1955-03-24,17.0
1955-03-25,17.0
1955-03-26,17.0
1955-03-27,16.0
1955-03-28,15.0
1955-03-29,18.0
1955-03-30,23.0
1955-03-31,26.0
1955-04-01,28.0
1955-04-02,33.0
1955-04-03,31.0
1955-04-04,28.0
1955-04-05,25.0
1955-04-06,25.0
1955-04-07,22.0
1955-04-08,22.0
1955-04-09,23.0
1955-04-10,31.0
1955-04-11,38.0
1955-04-12,33.0
1955-04-13,36.0
1955-04-14,48.0
1955-04-15,61.0
1955-04-16,85.0
1955-04-17,106.0
1955-04-18,80.0
1955-04-19,64.0
1955-04-20,52.0
1955-04-21,64.0
1955-04-22,81.0
1955-04-23,75.0
1955-04-24,72.0
1955-04-25,95.0
1955-04-26,148.0
1955-04-27,177.0
1955-04-28,192.0
1955-04-29,231.0
1955-04-30,213.0
1955-05-01,186.0
1955-05-02,207.0
1955-05-03,158.0
1955-05-04,150.0
1955-05-05,201.0
1955-05-06,288.0
1955-05-07,404.0
1955-05-08,424.0
1955-05-09,310.0
1955-05-10,261.0
1955-05-11,258.0
1955-05-12,313.0
1955-05-13,356.0
1955-05-14,460.0
1955-05-15,505.0
1955-05-16,428.0
1955-05-17,356.0
1955-05-18,296.0
1955-05-19,302.0
1955-05-20,348.0
1955-05-21,464.0
1955-05-22,550.0
1955-05-23,500.0
1955-05-24,540.0
1955-05-25,555.0
1955-05-26,476.0
1955-05-27,416.0
1955-05-28,384.0
1955-05-29,495.0
1955-05-30,635.0
1955-05-31,585.0
1955-06-01,420.0
1955-06-02,328.0
1955-06-03,320.0
1955-06-04,356.0
1955-06-05,324.0
1955-06-06,525.0
1955-06-07,834.0
1955-06-08,942.0
1955-06-09,887.0
1955-06-10,722.0
1955-06-11,612.0
1955-06-12,532.0
1955-06-13,514.0
1955-06-14,473.0
1955-06-15,379.0
1955-06-16,364.0
1955-06-17,336.0
1955-06-18,333.0
1955-06-19,305.0
1955-06-20,292.0
1955-06-21,289.0
1955-06-22,289.0
1955-06-23,279.0
1955-06-24,258.0
1955-06-25,231.0
1955-06-26,201.0
1955-06-27,186.0
1955-06-28,169.0
1955-06-29,158.0
1955-06-30,142.0
1955-07-01,130.0
1955-07-02,123.0
1955-07-03,112.0
1955-07-04,108.0
1955-07-05,106.0
1955-07-06,98.0
1955-07-07,84.0
1955-07-08,77.0
1955-07-09,72.0
1955-07-10,68.0
1955-07-11,83.0
1955-07-12,81.0
1955-07-13,67.0
1955-07-14,62.0
1955-07-15,58.0
1955-07-16,56.0
1955-07-17,55.0
1955-07-18,55.0
1955-07-19,64.0
1955-07-20,79.0
1955-07-21,64.0
1955-07-22,61.0
1955-07-23,58.0
1955-07-24,56.0
1955-07-25,53.0
1955-07-26,58.0
1955-07-27,72.0
1955-07-28,61.0
1955-07-29,51.0
1955-07-30,49.0
1955-07-31,66.0
1955-08-01,155.0
1955-08-02,169.0
1955-08-03,161.0
1955-08-04,150.0
1955-08-05,126.0
1955-08-06,161.0
1955-08-07,145.0
1955-08-08,128.0
1955-08-09,102.0
1955-08-10,100.0
1955-08-11,98.0
1955-08-12,83.0
1955-08-13,77.0
1955-08-14,81.0
1955-08-15,70.0
1955-08-16,74.0
1955-08-17,79.0
1955-08-18,70.0
1955-08-19,62.0
1955-08-20,58.0
1955-08-21,52.0
1955-08-22,49.0
1955-08-23,49.0
1955-08-24,50.0
1955-08-25,142.0
1955-08-26,88.0
1955-08-27,72.0
1955-08-28,74.0
1955-08-29,58.0
1955-08-30,52.0
1955-08-31,48.0
1955-09-01,45.0
1955-09-02,42.0
1955-09-03,40.0
1955-09-04,38.0
1955-09-05,37.0
1955-09-06,35.0
1955-09-07,35.0
1955-09-08,35.0
1955-09-09,35.0
1955-09-10,32.0
1955-09-11,30.0
1955-09-12,29.0
1955-09-13,28.0
1955-09-14,28.0
1955-09-15,27.0
1955-09-16,27.0
1955-09-17,30.0
1955-09-18,30.0
1955-09-19,36.0
1955-09-20,36.0
1955-09-21,30.0
1955-09-22,28.0
1955-09-23,26.0
1955-09-24,26.0
1955-09-25,27.0
1955-09-26,26.0
1955-09-27,26.0
1955-09-28,24.0
1955-09-29,24.0
1955-09-30,23.0
1955-10-01,23.0
1955-10-02,23.0
1955-10-03,22.0
1955-10-04,22.0
1955-10-05,23.0
1955-10-06,21.0
1955-10-07,19.0
1955-10-08,20.0
1955-10-09,21.0
1955-10-10,20.0
1955-10-11,20.0
1955-10-12,20.0
1955-10-13,20.0